Flag for Norway Weather past 2 weeks in Halden, Norway

Now
46 °F

Cool.


Feels Like: 46 °F
Forecast: 40 / 59 °F
Wind: 2 mph from South

Location: Stromtangen Fyr

Current Time: Apr 21, 2015 at 11:50:33 PM

Latest Report: Apr 21, 2015 at 10:00 PM


Visibility: N/A

Pressure: 30.21 "Hg

Humidity: 83%

Dew point: 41 °F

Location of HaldenLocation

Historic Weather in Halden — Graph

°F

Halden temperature yesterday

Maximum temperature yesterday: 56 °F (at 10:00 AM)
Minimum temperature yesterday: 47 °F (at 7:00 AM)
Average temperature yesterday: 51 °F

Past Weeks' High & Low Weather Summary

 TemperatureHumidityPressure
High62 °F (Apr 19, 8:00 PM)97% (Apr 10, 6:00 PM)30.47 "Hg (Apr 10, 6:00 PM)
Low38 °F (Apr 18, 7:00 AM)25% (Apr 19, 10:00 PM)29.47 "Hg (Apr 15, 5:00 PM)
Average46 °F69%30.04 "Hg
* Reported Apr 6 10:00 PM — Apr 21 10:00 PM, Halden, Weather by CustomWeather, © 2015

Note: Actual official high and low records may vary slightly from our data, if they occured in-between our weather recording intervals... More about our weather records

Advertising

Halden weather history for previous 24 hours

 ConditionsComfort  
Time TempWeatherWind HumidityBarometerVisibility
10:00 PM
Tue, Apr 21
46 °FCool.2 mph83%30.21 "HgN/A
9:00 PM47 °FCool.2 mph80%30.19 "HgN/A
8:00 PM50 °FCool.1 mph68%30.17 "HgN/A
7:00 PM50 °FCool.1 mph69%30.17 "HgN/A
6:00 PM50 °FCool.3 mph65%30.19 "HgN/A
5:00 PM49 °FCool.8 mph69%30.21 "HgN/A
4:00 PM50 °FCool.6 mph67%30.22 "HgN/A
3:00 PM51 °FCool.3 mph64%30.23 "HgN/A
2:00 PM50 °FCool.3 mph63%30.26 "HgN/A
1:00 PM49 °FCool.6 mph62%30.29 "HgN/A
12:00 PM49 °FCool.7 mph58%30.31 "HgN/A
11:00 AM51 °FCool.2 mph44%30.32 "HgN/A
10:00 AM49 °FCool.2 mph48%30.32 "HgN/A
9:00 AM48 °FCool.5 mph56%30.33 "HgN/A
8:00 AM47 °FCool.7 mph55%30.33 "HgN/A
6:00 AM43 °FQuite cool.5 mph71%30.29 "HgN/A
4:00 AM50 °FCool.3 mph39%30.27 "HgN/A
3:00 AM53 °FCool.7 mph35%30.25 "HgN/A
2:00 AM54 °FCool.7 mph34%30.24 "HgN/A
1:00 AM58 °FRefreshingly cool.8 mph30%30.23 "HgN/A
12:00 AM53 °FCool.3 mph44%30.23 "HgN/A
11:00 PM
Mon, Apr 20
49 °FCool.3 mph60%30.22 "HgN/A
Weather by CustomWeather, © 2015

See weather overviewHow to use our weather pages